TimeCDT,TemperatureF,Dew PointF,Humidity,Sea Level PressureIn,VisibilityMPH,Wind Direction,Wind SpeedMPH,Gust SpeedMPH,PrecipitationIn,Events,Conditions,WindDirDegrees,DateUTC
12:53 AM,44.1,37.9,79,30.33,10.0,Calm,Calm,-,N/A,,Clear,0,2013-05-24 05:53:00
1:53 AM,42.1,36.0,79,30.34,10.0,ENE,3.5,-,N/A,,Clear,70,2013-05-24 06:53:00
2:53 AM,42.1,36.0,79,30.34,10.0,ENE,4.6,-,N/A,,Clear,60,2013-05-24 07:53:00
3:53 AM,42.1,34.0,73,30.35,10.0,Calm,Calm,-,N/A,,Clear,0,2013-05-24 08:53:00
4:53 AM,39.9,34.0,79,30.36,10.0,ENE,5.8,-,N/A,,Clear,70,2013-05-24 09:53:00
5:53 AM,41.0,34.0,76,30.36,10.0,ENE,4.6,-,N/A,,Clear,70,2013-05-24 10:53:00
6:53 AM,44.1,36.0,73,30.38,10.0,ESE,4.6,-,N/A,,Clear,110,2013-05-24 11:53:00
7:53 AM,48.9,37.0,64,30.38,10.0,SE,10.4,-,N/A,,Clear,130,2013-05-24 12:53:00
8:53 AM,53.1,39.0,59,30.39,10.0,SE,10.4,-,N/A,,Clear,130,2013-05-24 13:53:00
9:53 AM,57.9,42.1,56,30.39,10.0,SSE,12.7,21.9,N/A,,Clear,160,2013-05-24 14:53:00
10:53 AM,61.0,42.1,50,30.38,10.0,SSE,15.0,-,N/A,,Clear,160,2013-05-24 15:53:00
11:53 AM,63.0,43.0,48,30.35,10.0,SE,12.7,-,N/A,,Clear,140,2013-05-24 16:53:00
12:53 PM,64.0,44.1,48,30.32,10.0,SE,16.1,-,N/A,,Clear,140,2013-05-24 17:53:00
1:53 PM,66.0,45.0,47,30.30,10.0,SSE,17.3,24.2,N/A,,Clear,150,2013-05-24 18:53:00
2:53 PM,66.0,44.1,45,30.29,10.0,SSE,17.3,25.3,N/A,,Clear,160,2013-05-24 19:53:00
3:53 PM,68.0,44.1,42,30.25,10.0,SSE,21.9,27.6,N/A,,Clear,150,2013-05-24 20:53:00
4:53 PM,69.1,41.0,36,30.23,10.0,South,19.6,23.0,N/A,,Scattered Clouds,170,2013-05-24 21:53:00
5:53 PM,64.9,41.0,42,30.24,10.0,SSE,15.0,24.2,N/A,,Overcast,150,2013-05-24 22:53:00
6:53 PM,64.9,39.9,40,30.30,10.0,SSE,3.5,-,N/A,,Overcast,160,2013-05-24 23:53:00
7:50 PM,62.6,42.8,48,30.26,10.0,ESE,11.5,-,0.00,Thunderstorm,Overcast,120,2013-05-25 00:50:00
7:53 PM,63.0,42.1,46,30.26,10.0,ESE,10.4,-,0.00,Rain-Thunderstorm,Light Rain,120,2013-05-25 00:53:00
8:25 PM,60.8,46.4,59,30.24,10.0,ESE,15.0,-,0.00,Rain,Light Rain,110,2013-05-25 01:25:00
8:53 PM,57.9,46.0,65,30.25,8.0,SE,9.2,-,0.03,Rain,Light Rain,140,2013-05-25 01:53:00
9:03 PM,57.2,46.4,67,30.25,4.0,ESE,16.1,20.7,0.06,Rain-Thunderstorm,Heavy Rain,110,2013-05-25 02:03:00
9:38 PM,55.4,46.4,72,30.23,9.0,ESE,19.6,-,0.18,Rain,Light Rain,120,2013-05-25 02:38:00
9:53 PM,55.0,46.9,74,30.21,9.0,ESE,16.1,-,0.20,Rain,Light Rain,120,2013-05-25 02:53:00
10:31 PM,55.4,46.4,72,30.21,10.0,SE,19.6,-,0.00,Thunderstorm,Overcast,130,2013-05-25 03:31:00
10:46 PM,55.4,46.4,72,30.20,10.0,SE,16.1,-,0.00,,Overcast,130,2013-05-25 03:46:00
10:53 PM,55.0,46.0,72,30.19,10.0,SE,18.4,24.2,0.00,,Overcast,130,2013-05-25 03:53:00
11:53 PM,55.0,46.0,72,30.22,10.0,SSE,15.0,-,0.01,Rain,Light Rain,160,2013-05-25 04:53:00